Location: Bosler Junction
(41.5528°N, 105.6814°W)
Time: 16:45:46
(UTC+00:00)

Envisat - Visible Passes

Search period start: 24 January 2022 00:00
Search period end: 03 February 2022 00:00
Orbit: 764 x 766 km, 98.2° (Epoch: 23 January)

Date Brightness Start Highest point End Pass type
(mag) Time Alt. Az. Time Alt. Az. Time Alt. Az.
24 Jan 5.7 10:39:40 10° ENE 10:42:27 15° E 10:45:13 10° ESE visible
24 Jan 2.9 12:16:52 10° N 12:21:54 65° WNW 12:26:55 10° SSW visible
25 Jan 3.5 11:40:02 10° NNE 11:45:02 57° E 11:50:01 10° S visible
25 Jan 4.3 13:20:11 10° NNW 13:23:35 18° WNW 13:27:00 10° WSW visible
26 Jan 6.2 00:37:01 10° WSW 00:39:06 12° W 00:41:12 10° WNW visible
26 Jan 5.0 11:03:46 10° NE 11:07:59 25° E 11:12:09 10° SSE visible
26 Jan 3.4 12:42:24 10° N 12:47:04 38° WNW 12:51:43 10° SW visible
27 Jan 6.0 10:29:17 10° ENE 10:30:43 11° E 10:32:08 10° ESE visible
27 Jan 2.8 12:05:14 10° NNE 12:10:20 83° WNW 12:15:25 10° SSW visible
27 Jan 4.8 13:47:17 10° NW 13:48:30 11° WNW 13:49:44 10° WNW visible
28 Jan 4.0 11:28:33 10° NNE 11:33:25 44° E 11:38:15 10° S visible
28 Jan 4.1 13:08:13 10° NNW 13:12:07 23° WNW 13:16:02 10° WSW visible
29 Jan 5.3 10:52:34 10° NE 10:56:17 20° E 10:59:59 10° SE visible
29 Jan 3.1 12:30:40 10° N 12:35:32 48° WNW 12:40:23 10° SW visible
30 Jan 3.0 11:53:38 10° NNE 11:58:45 78° ESE 12:03:49 10° S visible
30 Jan 4.6 13:34:35 10° NNW 13:37:05 14° WNW 13:39:34 10° W visible
31 Jan 4.5 11:17:07 10° NNE 11:21:46 35° E 11:26:22 10° SSE visible
31 Jan 3.8 12:56:20 10° N 13:00:38 28° WNW 13:04:55 10° SW visible
01 Feb 5.6 10:41:33 10° NE 10:44:34 16° E 10:47:35 10° SE visible
01 Feb 2.9 12:18:58 10° N 12:23:59 61° WNW 12:28:58 10° SSW visible
02 Feb 3.4 11:42:05 10° NNE 11:47:08 61° E 11:52:08 10° S visible
02 Feb 4.4 13:22:24 10° NNW 13:25:38 17° WNW 13:28:52 10° WSW visible
